STARLINK-5211, 54086

Orbit data source: Space-Track

STARLINK-5211, 54086 is a payload satellite owned by SpaceX/Seattle (US) in LEO that was launched on Thu, 20 Oct 2022 UTC via an FALCON 9 launch vehicle from the Air Force Eastern Test Range (AFETR). Payload-class satellites include a variety of spacecraft equipped with specific instruments for various scientific and technological missions. These include communications satellites like Starlink; space stations such as the ISS; scientific satellites like the Hubble; Earth observation satellites from companies like Planet Labs, Umbra, and HawkEye 360; GPS; miniature CubeSats for education and research; and military/defense satellites.

Loading next visibility...
Identifier
54086, 2022-136AM
Orbit
LEO
Country
Flag of USUS
Related business
Manufacturer
SpaceX/Seattle
Mission
Operational Commercial Communications
Bus & Motor
STARLINK, Unknown motor
Mass
305 kg wet, ~290 kg dry
Launch date (UTC)
2022-10-20 (3 years ago)
Launch vehicle
FALCON 9
Launch site
Air Force Eastern Test Range (AFETR)
Object type
Payload
Rocket body
Debris
Shape & HBR
Box + 1 Pan, 4.4 m
Radar Cross Section
13.562 m², Large (>1 m²)

Expand to show TLE details & history
Last TLE update: 22 hours ago

TLE from 22 hours ago
0 STARLINK-5211
1 54086U 22136AM  25260.60732996 -.00001809  00000-0 -95626-4 0  9996
2 54086  53.2196  16.2201 0001278  89.4400 270.6739 15.08829820161067
Epoch: 2025-09-17T14:34Z
TLE epoch observation values (Epoch: 2025-09-17T14:34:33.308Z)
Latitude
0.00001°
Longitude
160.80047°
Altitude
540.662 km
Speed
7.593 km/s
True Right ascension
01h 04m 52s
True Declination
0° 00' 00"
Sunlit
Object was in full shadow at epoch
Visualization orbit readout
Latitude
Unknown
Longitude
Unknown
Altitude
Unknown
Speed
Unknown
Apparent Right ascension
Unknown
Apparent Declination
Unknown
Sunlit
N/A
Visualization observer readout
Local Sidereal Time
05:02:39
Azimuth
Unknown
Elevation
Unknown
Doppler factor
Unknown
Orbital elements
Apogee altitude
540.903 km
Perigee altitude
539.135 km
Semi-major axis
6,918.156 km
Eccentricity
0.00013
Inclination
53.2196°
RAAN
16.2201°
Arg. of periapsis
89.44°
True anomaly
270.65926°
Mean anomaly
270.6739°
Eccentric anomaly
270.66658°
Mean motion
3.77188 °/min
Orbital period
95.44 mins
BSTAR
-0.000095626
Loading maneuver chart data...
Computing Atmospheric mass density...
Loading historical data...
Loading historical data...
Loading historical data...
Loading historical data...
Loading historical data...
Loading historical data...
Loading historical data...

Documentation

Showing up to 5 results
|